When you browse on this site, cookies collect data to enhance your experience and personalize the content and advertising you see.
Visit our Privacy Policy to learn more. By continuing to use the site, you agree to this use of cookies and data.
  • In Portugal
  • List of Countries
  • For 7 days
  • Water Temperature
  • Weather Map
  • Weather Widgets
  • user-avatar
    Login

    Hourly Weather Mihaylovka

    Today, 26 August, Monday

    Time Temperature Precipitation Wind Pressure Humidity
    00:00 +12°C° 0 mm 4 mps 752 mmHg 85%
    01:00 +12°C° 0 mm 4 mps 752 mmHg 87%
    02:00 +11°C° 0 mm 4 mps 753 mmHg 89%
    03:00 +11°C° 0 mm 4 mps 753 mmHg 91%
    04:00 +11°C° 0 mm 4 mps 754 mmHg 91%
    05:00 +11°C° 0 mm 4 mps 754 mmHg 91%
    06:00 +11°C° 0 mm 4 mps 754 mmHg 91%
    07:00 +12°C° 0 mm 4 mps 754 mmHg 84%
    08:00 +13°C° 0 mm 5 mps 755 mmHg 78%
    09:00 +14°C° 0 mm 5 mps 755 mmHg 71%
    10:00 +15°C° 0 mm 5 mps 755 mmHg 65%
    11:00 +18°C° 0 mm 4 mps 755 mmHg 59%
    12:00 +19°C° 0 mm 4 mps 755 mmHg 54%
    13:00 +19°C° 0 mm 4 mps 755 mmHg 54%
    14:00 +19°C° 0 mm 4 mps 755 mmHg 54%
    15:00 +19°C° 0 mm 4 mps 755 mmHg 55%
    16:00 +18°C° 0 mm 3 mps 754 mmHg 60%
    17:00 +17°C° 0 mm 3 mps 754 mmHg 64%
    18:00 +16°C° 0 mm 2 mps 754 mmHg 69%
    19:00 +15°C° 0 mm 2 mps 754 mmHg 71%
    20:00 +14°C° 0 mm 1 mps 754 mmHg 73%
    21:00 +13°C° 0 mm 1 mps 754 mmHg 74%
    22:00 +12°C° 0 mm 1 mps 753 mmHg 75%
    23:00 +12°C° 0 mm 2 mps 753 mmHg 76%

    Tomorrow, 27 August, Tuesday

    Time Temperature Precipitation Wind Pressure Humidity
    00:00 +12°C° 0 mm 2 mps 752 mmHg 77%
    01:00 +12°C° 0 mm 2 mps 752 mmHg 77%
    02:00 +12°C° 0 mm 2 mps 752 mmHg 78%
    03:00 +11°C° 0 mm 3 mps 751 mmHg 79%
    04:00 +11°C° 0 mm 3 mps 751 mmHg 78%
    05:00 +12°C° 0 mm 3 mps 750 mmHg 77%
    06:00 +12°C° 0 mm 4 mps 749 mmHg 77%
    07:00 +13°C° 0 mm 4 mps 749 mmHg 74%
    08:00 +14°C° 0 mm 5 mps 748 mmHg 71%
    09:00 +15°C° 0 mm 5 mps 748 mmHg 69%
    10:00 +15°C° 0.2 mm 6 mps 747 mmHg 72%
    11:00 +15°C° 0.2 mm 6 mps 746 mmHg 76%
    12:00 +14°C° 0.2 mm 6 mps 746 mmHg 79%
    13:00 +14°C° 0.8 mm 6 mps 745 mmHg 83%
    14:00 +14°C° 0.8 mm 6 mps 745 mmHg 87%
    15:00 +13°C° 0.8 mm 6 mps 745 mmHg 91%
    16:00 +13°C° 1 mm 5 mps 744 mmHg 92%
    17:00 +13°C° 1 mm 4 mps 744 mmHg 92%
    18:00 +14°C° 1 mm 3 mps 743 mmHg 93%
    19:00 +13°C° 0.2 mm 3 mps 743 mmHg 93%
    20:00 +12°C° 0.2 mm 3 mps 743 mmHg 93%
    21:00 +12°C° 0.2 mm 3 mps 742 mmHg 93%
    22:00 +12°C° 0.1 mm 3 mps 742 mmHg 93%
    23:00 +12°C° 0.1 mm 3 mps 742 mmHg 93%

    Day after tomorrow, 28 August, Wednesday

    Time Temperature Precipitation Wind Pressure Humidity
    00:00 +12°C° 0.1 mm 4 mps 742 mmHg 92%
    01:00 +11°C° 0.6 mm 4 mps 742 mmHg 92%
    02:00 +10°C° 0.6 mm 5 mps 742 mmHg 92%
    03:00 +10°C° 0.6 mm 5 mps 741 mmHg 92%
    04:00 +10°C° 0.6 mm 6 mps 741 mmHg 91%
    05:00 +9°C° 0.6 mm 6 mps 741 mmHg 89%
    06:00 +9°C° 0.6 mm 7 mps 741 mmHg 87%
    07:00 +9°C° 0 mm 7 mps 742 mmHg 84%
    08:00 +9°C° 0 mm 7 mps 742 mmHg 80%
    09:00 +10°C° 0 mm 8 mps 743 mmHg 77%
    10:00 +10°C° 0 mm 8 mps 743 mmHg 78%
    11:00 +10°C° 0 mm 8 mps 743 mmHg 79%
    12:00 +9°C° 0 mm 8 mps 743 mmHg 80%
    13:00 +10°C° 0.1 mm 8 mps 743 mmHg 78%
    14:00 +10°C° 0.1 mm 8 mps 744 mmHg 76%
    15:00 +11°C° 0.1 mm 9 mps 744 mmHg 75%
    16:00 +10°C° 0.1 mm 9 mps 744 mmHg 76%
    17:00 +8°C° 0.1 mm 9 mps 744 mmHg 78%
    18:00 +8°C° 0.1 mm 9 mps 745 mmHg 79%
    19:00 +7°C° 0.1 mm 9 mps 745 mmHg 80%
    20:00 +7°C° 0.1 mm 9 mps 745 mmHg 81%
    21:00 +7°C° 0.1 mm 9 mps 745 mmHg 82%
    22:00 +7°C° 0 mm 9 mps 745 mmHg 81%
    23:00 +6°C° 0 mm 8 mps 745 mmHg 81%

    29 August, Thursday

    Time Temperature Precipitation Wind Pressure Humidity
    00:00 +6°C° 0 mm 8 mps 745 mmHg 81%
    01:00 +6°C° 0 mm 8 mps 746 mmHg 81%
    02:00 +6°C° 0 mm 8 mps 746 mmHg 80%
    03:00 +6°C° 0 mm 8 mps 746 mmHg 80%
    04:00 +6°C° 0 mm 8 mps 746 mmHg 79%
    05:00 +6°C° 0 mm 8 mps 747 mmHg 78%
    06:00 +6°C° 0 mm 8 mps 747 mmHg 77%
    07:00 +6°C° 0 mm 8 mps 747 mmHg 76%
    08:00 +6°C° 0 mm 8 mps 747 mmHg 75%
    09:00 +6°C° 0 mm 8 mps 748 mmHg 74%
    10:00 +7°C° 0 mm 8 mps 748 mmHg 73%
    11:00 +9°C° 0 mm 8 mps 748 mmHg 72%
    12:00 +9°C° 0 mm 8 mps 749 mmHg 71%
    13:00 +10°C° 0 mm 8 mps 749 mmHg 69%
    14:00 +10°C° 0 mm 8 mps 749 mmHg 68%
    15:00 +11°C° 0 mm 8 mps 749 mmHg 66%
    16:00 +11°C° 0 mm 7 mps 749 mmHg 67%
    17:00 +10°C° 0 mm 6 mps 749 mmHg 67%
    18:00 +10°C° 0 mm 5 mps 749 mmHg 67%
    19:00 +10°C° 0 mm 5 mps 749 mmHg 68%
    20:00 +9°C° 0 mm 5 mps 750 mmHg 68%
    21:00 +9°C° 0 mm 5 mps 750 mmHg 69%
    22:00 +8°C° 0 mm 4 mps 750 mmHg 72%
    23:00 +7°C° 0 mm 4 mps 749 mmHg 76%

    30 August, Friday

    Time Temperature Precipitation Wind Pressure Humidity
    00:00 +6°C° 0 mm 4 mps 749 mmHg 79%
    01:00 +7°C° 0 mm 3 mps 749 mmHg 81%
    02:00 +5°C° 0 mm 3 mps 749 mmHg 83%
    03:00 +5°C° 0 mm 3 mps 749 mmHg 85%
    04:00 +5°C° 0 mm 3 mps 749 mmHg 84%
    05:00 +5°C° 0 mm 3 mps 749 mmHg 83%
    06:00 +5°C° 0 mm 3 mps 749 mmHg 83%
    07:00 +8°C° 0 mm 3 mps 749 mmHg 77%
    08:00 +9°C° 0 mm 3 mps 749 mmHg 72%
    09:00 +10°C° 0 mm 3 mps 749 mmHg 66%
    10:00 +11°C° 0 mm 4 mps 749 mmHg 63%
    11:00 +12°C° 0 mm 4 mps 749 mmHg 59%
    12:00 +12°C° 0 mm 5 mps 749 mmHg 55%
    13:00 +12°C° 0.1 mm 5 mps 749 mmHg 60%
    14:00 +12°C° 0.1 mm 5 mps 749 mmHg 65%
    15:00 +10°C° 0.1 mm 6 mps 749 mmHg 69%
    16:00 +10°C° 0 mm 5 mps 749 mmHg 72%
    17:00 +10°C° 0 mm 4 mps 749 mmHg 75%
    18:00 +8°C° 0 mm 4 mps 749 mmHg 78%
    19:00 +8°C° 0 mm 4 mps 749 mmHg 79%
    20:00 +9°C° 0 mm 3 mps 750 mmHg 80%
    21:00 +8°C° 0 mm 3 mps 750 mmHg 81%
    22:00 +8°C° 0 mm 3 mps 750 mmHg 82%
    23:00 +7°C° 0 mm 3 mps 750 mmHg 83%

    31 August, Saturday

    Time Temperature Precipitation Wind Pressure Humidity
    00:00 +7°C° 0 mm 3 mps 750 mmHg 85%
    01:00 +5°C° 0 mm 3 mps 750 mmHg 85%
    02:00 +5°C° 0 mm 3 mps 750 mmHg 86%
    03:00 +4°C° 0 mm 3 mps 750 mmHg 87%
    04:00 +5°C° 0 mm 3 mps 750 mmHg 86%
    05:00 +5°C° 0 mm 4 mps 750 mmHg 85%
    06:00 +6°C° 0 mm 4 mps 750 mmHg 84%
    07:00 +7°C° 0 mm 5 mps 750 mmHg 78%
    08:00 +8°C° 0 mm 5 mps 750 mmHg 72%
    09:00 +9°C° 0 mm 5 mps 750 mmHg 66%
    10:00 +9°C° 0 mm 5 mps 750 mmHg 65%
    11:00 +9°C° 0 mm 5 mps 750 mmHg 63%
    12:00 +9°C° 0 mm 5 mps 750 mmHg 61%
    13:00 +9°C° 0 mm 5 mps 750 mmHg 60%
    14:00 +10°C° 0 mm 4 mps 749 mmHg 60%
    15:00 +10°C° 0 mm 4 mps 749 mmHg 60%
    16:00 +10°C° 0 mm 4 mps 749 mmHg 64%
    17:00 +8°C° 0 mm 4 mps 749 mmHg 67%
    18:00 +9°C° 0 mm 3 mps 750 mmHg 71%
    19:00 +8°C° 0 mm 3 mps 750 mmHg 73%
    20:00 +7°C° 0 mm 3 mps 749 mmHg 74%
    21:00 +5°C° 0 mm 3 mps 749 mmHg 76%
    22:00 +5°C° 0 mm 3 mps 749 mmHg 77%
    23:00 +5°C° 0 mm 3 mps 749 mmHg 78%
    Show more